Location: Newark
(25.0000°N, 73.5000°E)
Time: 00:10:44
(UTC+00:00)

LightSail 2 - Visible Passes

Search period start: 10 December 2019 00:00
Search period end: 20 December 2019 00:00
Orbit: 696 x 730 km, 24.0° (Epoch: 08 December)

Date Brightness Start Highest point End Pass type
(mag) Time Alt. Az. Time Alt. Az. Time Alt. Az.
10 Dec 5.7 12:49:04 10° W 12:54:10 57° SSW 12:59:13 10° ESE visible
10 Dec 6.9 14:35:15 10° WSW 14:39:24 25° SSW 14:39:41 24° SSW visible
11 Dec 6.6 13:36:47 10° W 13:41:23 32° SSW 13:45:46 11° SE visible
12 Dec 6.4 12:38:27 10° W 12:43:20 41° SSW 12:48:11 10° SE visible
12 Dec 7.6 14:25:29 10° WSW 14:28:28 15° SSW 14:30:59 11° S visible
13 Dec 7.4 13:26:34 10° WSW 13:30:28 21° SSW 13:34:19 10° SSE visible
15 Dec 7.9 13:17:10 10° SW 13:19:27 13° SSW 13:21:44 10° S visible
